Satellite: OKEAN-4
Catalog number: 23317
Epoch time:      09148.73119311
Element set:     920
Inclination:      082.5391 deg
RA of node:       352.6461 deg
Eccentricity:    0.0023883
Arg of perigee:   069.8335 deg
Mean anomaly:     290.5447 deg
Mean motion:   14.82698488 rev/day
Decay rate:        5.9e-07 rev/day^2
Epoch rev:           78948
Checksum:              342

Satellite: NOAA-14
Catalog number: 23455
Epoch time:      09147.92970830
Element set:    0633
Inclination:      098.9099 deg
RA of node:       225.6788 deg
Eccentricity:    0.0008610
Arg of perigee:   246.0397 deg
Mean anomaly:     113.9881 deg
Mean motion:   14.13760667 rev/day
Decay rate:      -2.79e-06 rev/day^2
Epoch rev:           74306
Checksum:              344

Satellite: NOAA-15
Catalog number: 25338
Epoch time:      09147.82761838
Element set:    0941
Inclination:      098.5832 deg
RA of node:       137.4832 deg
Eccentricity:    0.0011623
Arg of perigee:   115.1659 deg
Mean anomaly:     245.0718 deg
Mean motion:   14.24761337 rev/day
Decay rate:       -6.5e-07 rev/day^2
Epoch rev:           57387
Checksum:              327

Satellite: RESURS
Catalog number: 25394
Epoch time:      09148.69929616
Element set:     223
Inclination:      098.3410 deg
RA of node:       182.0374 deg
Eccentricity:    0.0000729
Arg of perigee:   308.2574 deg
Mean anomaly:     051.8539 deg
Mean motion:   14.24183499 rev/day
Decay rate:        9.0e-08 rev/day^2
Epoch rev:           56562
Checksum:              317

Satellite: FENGYUN1
Catalog number: 25730
Epoch time:      09147.95745682
Element set:    0769
Inclination:      098.7550 deg
RA of node:       118.7293 deg
Eccentricity:    0.0020338
Arg of perigee:   280.7987 deg
Mean anomaly:     079.0891 deg
Mean motion:   14.07942517 rev/day
Decay rate:      -4.43e-06 rev/day^2
Epoch rev:           51747
Checksum:              348

Satellite: OKEAN-0
Catalog number: 25860
Epoch time:      09148.47954492
Element set:     688
Inclination:      097.7847 deg
RA of node:       130.4451 deg
Eccentricity:    0.0000618
Arg of perigee:   097.6857 deg
Mean anomaly:     262.4417 deg
Mean motion:   14.73574256 rev/day
Decay rate:        1.4e-07 rev/day^2
Epoch rev:           53024
Checksum:              326

Satellite: NOAA-16
Catalog number: 26536
Epoch time:      09147.82119579
Element set:    0418
Inclination:      099.1759 deg
RA of node:       150.9956 deg
Eccentricity:    0.0010335
Arg of perigee:   343.7081 deg
Mean anomaly:     016.3739 deg
Mean motion:   14.12519231 rev/day
Decay rate:       -9.6e-07 rev/day^2
Epoch rev:           44742
Checksum:              324

Satellite: NOAA-17
Catalog number: 27453
Epoch time:      09147.90580379
Element set:    0428
Inclination:      098.4854 deg
RA of node:       207.6725 deg
Eccentricity:    0.0011791
Arg of perigee:   178.1965 deg
Mean anomaly:     181.9245 deg
Mean motion:   14.24066350 rev/day
Decay rate:       1.91e-06 rev/day^2
Epoch rev:           35986
Checksum:              341

Satellite: NOAA-18
Catalog number: 28654
Epoch time:      09147.91212219
Element set:    0915
Inclination:      098.9069 deg
RA of node:       091.3093 deg
Eccentricity:    0.0015237
Arg of perigee:   062.4701 deg
Mean anomaly:     297.8059 deg
Mean motion:   14.11259230 rev/day
Decay rate:        9.0e-07 rev/day^2
Epoch rev:           20709
Checksum:              307

Satellite: NOAA-19
Catalog number: 33591
Epoch time:      09147.95864313
Element set:    0119
Inclination:      098.7468 deg
RA of node:       094.2480 deg
Eccentricity:    0.0013342
Arg of perigee:   303.6393 deg
Mean anomaly:     056.3494 deg
Mean motion:   14.10960985 rev/day
Decay rate:       1.25e-06 rev/day^2
Epoch rev:           01558
Checksum:              322

/EX
SB KEPS @ AMSAT  $ORB09148.M
Orbital Elements  09148.MISC

HR AMSAT ORBITAL ELEMENTS FOR MANNED AND MISCELLANEOUS SATELLITES
FROM WA5QGD FORT WORTH,TX May 28, 2009
Send Subscribe/unsubscribe to KEPS at 
http://www.amsat.org/mailman/listinfo/keps
BID: ORB09148.M
TO ALL RADIO AMATEURS BT

Satellite: HUBBLE
Catalog number: 20580
Epoch time:      09146.50056831
Element set:    0399
Inclination:      028.4723 deg
RA of node:       243.8310 deg
Eccentricity:    0.0003727
Arg of perigee:   053.1583 deg
Mean anomaly:     306.8828 deg
Mean motion:   15.00807874 rev/day
Decay rate:       9.55e-06 rev/day^2
Epoch rev:           84659
Checksum:              310

Satellite: ISS
Catalog number: 25544
Epoch time:      09148.74472752
Element set:     934
Inclination:      051.6417 deg
RA of node:       046.6567 deg
Eccentricity:    0.0009647
Arg of perigee:   053.6815 deg
Mean anomaly:     000.1616 deg
Mean motion:   15.73143893 rev/day
Decay rate:     1.2364e-04 rev/day^2
Epoch rev:           60289
Checksum:              314

Satellite: CO-58
Catalog number: 28895
Epoch time:      09147.70624514
Element set:     312
Inclination:      098.0640 deg
RA of node:       038.8945 deg
Eccentricity:    0.0019091
Arg of perigee:   053.8823 deg
Mean anomaly:     306.4159 deg
Mean motion:   14.59770136 rev/day
Decay rate:       1.46e-06 rev/day^2
Epoch rev:           19074
Checksum:              327

